Miscellaneous Local Product
Issued by NWS Hastings, NE

Home | Current Version | Previous Version | Text Only | Print | Product List | Glossary On
Versions: 1 2 3 4 5 6 7 8 9 10 11 12 13 14 15 16 17 18 19 20 21 22 23 24 25 26 27 28 29 30 31 32 33 34 35 36 37 38 39 40 41 42 43 44 45 46 47 48 49 50
476
AXUS43 KGID 221302
MISGRI

GID CWA HOURLY WEATHER ROUNDUP
NATIONAL WEATHER SERVICE HASTINGS NE
800 AM CDT SAT JUL 22 2017

NOTE: "FAIR" INDICATES FEW OR NO CLOUDS BELOW 12,000 FEET WITH NO
SIGNIFICANT WEATHER AND/OR OBSTRUCTIONS TO VISIBILITY.

...SOUTH CENTRAL NEBRASKA...

CITY           SKY/WX    TMP DP  RH WIND       PRES   REMARKS
GRAND ISLAND   SUNNY     76  70  82 N12       29.90R
HASTINGS       SUNNY     74  68  81 NE5       29.90R
KEARNEY        SUNNY     79  69  71 N8        29.91
ORD            CLOUDY    74  71  91 NE6       29.91R FOG
YORK           CLOUDY    77  72  83 N8        29.87R
AURORA         MOSUNNY   74  69  85 N5        29.88R
LEXINGTON      CLOUDY    75  66  72 NE7       29.92S
HOLDREGE       MOSUNNY   75  66  73 N9        29.90S
HEBRON         SUNNY     80  69  67 NW3       29.85R

...NEBRASKA PANHANDLE...

CITY           SKY/WX    TMP DP  RH WIND       PRES   REMARKS
CHADRON        MOSUNNY   68  53  58 CALM      30.03R
ALLIANCE       MOSUNNY   62  57  83 CALM      30.05R
SCOTTSBLUFF    SUNNY     67  57  70 CALM      30.06R
SIDNEY         PTSUNNY   66  56  70 NW8       30.09R

...WESTERN AND NORTH CENTRAL NEBRASKA...

CITY           SKY/WX    TMP DP  RH WIND       PRES   REMARKS
VALENTINE      PTSUNNY   73  58  59 NW3       29.96S
AINSWORTH      CLOUDY    68  64  85 W7        29.96R
ONEILL         PTSUNNY   74  74 100 S3        29.92R FOG
BROKEN BOW     SUNNY     73  66  78 N5        29.95R
IMPERIAL       MOSUNNY   72  58  61 NW7       30.03R
NORTH PLATTE   MOSUNNY   75  59  57 NW3       29.97R
MCCOOK         MOSUNNY   77  59  53 N7        29.94R

...EASTERN NEBRASKA...

CITY           SKY/WX    TMP DP  RH WIND       PRES   REMARKS
NORFOLK        CLOUDY    77  73  87 CALM      29.86R
SO SIOUX CITY  CLOUDY    76  73  91 NW3       29.84R
TEKAMAH        CLOUDY    77  74  90 NE5       29.81R
COLUMBUS       CLOUDY    77  75  93 N6        29.86R FOG
ALBION         CLOUDY    76  76  98 NE5       29.89R FOG
OMAHA EPPLEY   CLOUDY    79  75  87 NE6       29.80R
OFFUTT AFB     PTSUNNY   79  75  86 N3        29.80R
MILLARD        CLOUDY    81  78  90 CALM      29.81R FOG     HX  90
LINCOLN        CLOUDY    79  77  94 NE7       29.82S FOG
NEBRASKA CITY  SUNNY     80  70  71 W7        29.81S
BEATRICE       SUNNY     79  66  65 CALM      29.83S
FALLS CITY     NOT AVBL

...NORTHERN KANSAS...

CITY           SKY/WX    TMP DP  RH WIND       PRES   REMARKS
GOODLAND       CLOUDY    69  59  70 NW13      30.06R
HILL CITY      SUNNY     73  60  63 W8        29.91R
NORTON         SUNNY     79  54  41 CALM      29.90
PHILLIPSBURG   SUNNY     79  63  57 CALM      29.88R
SMITH CENTER   SUNNY     75  66  73 NE6       29.86R
HAYS           MOSUNNY   74  60  61 W5        29.88S
RUSSELL        SUNNY     76  58  53 SW10      29.86R
CONCORDIA      SUNNY     80  64  58 SW6       29.83R
SALINA         SUNNY     86  65  49 SW8       29.84R
TOPEKA         SUNNY     83  73  72 SW8       29.83R



USA.gov is the U.S. government's official web portal to all federal, state and local government web resources and services.